Location: Arbon
(43.0005°N, 0.7472°E)
Time: 09:41:14
(UTC+00:00)

SR - Pass Details

Date: 30 November 2020
Orbit: 575 x 880 km, 66.7° (Epoch: 21 January)

Event Time Altitude Azimuth Distance (km) Brightness Sun altitude
Rises 00:46:10 0° 341° (NNW) 3,138 - -65.2°
Reaches altitude 10° 00:49:52 10° 9° (N) 2,289 - -64.8°
Maximum altitude 00:52:17 13° 36° (NE) 2,122 - -64.6°
Drops below altitude 10° 00:54:48 10° 64° (ENE) 2,377 - -64.3°
Sets 00:58:47 0° 91° (E) 3,370 - -63.8°
